Date,TemperatureHighF,TemperatureAvgF,TemperatureLowF,DewpointHighF,DewpointAvgF,DewpointLowF,HumidityHigh,HumidityAvg,HumidityLow,PressureMaxIn,PressureMinIn,WindSpeedMaxMPH,WindSpeedAvgMPH,GustSpeedMaxMPH,PrecipitationSumIn
2013-1-1,14.9,7.9,-0.2,12.4,2.8,-4.6,93,80,65,29.67,29.48,15,6,23,0.00
2013-1-2,5.8,0.3,-4.8,-0.6,-6.4,-10.9,80,73,65,29.98,29.67,19,13,27,0.00
2013-1-3,4.9,-0.1,-5.0,-0.9,-5.2,-9.1,86,79,73,30.03,29.88,13,6,14,0.00
2013-1-4,22.8,8.3,-8.1,19.4,5.1,-11.9,93,86,82,29.88,29.56,5,1,7,0.00
2013-1-5,20.0,10.0,-6.6,18.1,3.5,-10.0,93,75,58,30.21,29.58,19,6,24,0.00
2013-1-6,11.4,4.0,-7.1,7.6,-0.2,-11.1,87,83,72,30.20,29.99,7,1,7,0.00
2013-1-7,4.5,-2.3,-10.7,-1.7,-8.7,-14.7,85,74,57,30.39,30.13,10,2,12,0.00
2013-1-8,32.4,18.3,-4.4,26.7,13.6,-9.0,92,82,76,30.27,30.06,14,3,14,0.00
2013-1-9,31.4,27.8,20.5,29.5,25.1,18.5,95,89,81,30.36,29.66,5,0,7,0.02
2013-1-10,33.9,29.1,19.7,31.3,24.3,15.6,96,82,71,30.47,29.66,18,10,22,0.01
2013-1-11,28.2,19.0,8.7,18.6,14.2,6.1,91,82,62,30.53,30.25,5,0,5,0.00
2013-1-12,33.3,29.4,24.8,31.4,24.6,17.8,93,82,71,30.27,30.02,1,0,3,0.00
2013-1-13,41.7,36.1,33.0,38.1,34.7,31.5,97,95,86,30.08,29.84,1,0,4,0.19
2013-1-14,49.4,35.7,21.2,44.2,30.6,11.6,97,82,64,30.18,29.68,17,5,23,0.00
2013-1-15,20.9,15.5,10.1,11.0,6.6,3.3,78,68,60,30.30,30.18,9,4,13,0.00
2013-1-16,27.2,18.3,8.6,23.0,14.3,5.5,100,84,69,30.21,29.71,3,0,5,0.00
2013-1-17,28.3,10.1,-11.0,26.0,2.2,-19.2,94,72,38,30.19,29.60,19,7,24,0.00
2013-1-18,3.1,-6.3,-18.8,-9.2,-14.8,-23.5,92,67,48,30.26,30.15,9,2,14,0.00
2013-1-19,16.2,8.0,-5.7,12.7,3.8,-11.0,90,82,67,30.26,29.96,4,0,8,0.00
2013-1-20,30.5,18.4,1.3,29.0,15.2,-5.9,95,87,71,30.00,29.27,23,5,31,0.00
2013-1-21,4.9,-1.1,-6.5,-5.8,-9.0,-12.4,75,68,59,30.00,29.63,13,7,16,0.00
2013-1-22,0.4,-10.4,-22.5,-10.0,-16.8,-27.2,82,73,54,29.97,29.83,12,2,14,0.00
2013-1-23,-5.9,-11.6,-20.1,-13.4,-18.8,-25.2,82,70,57,29.92,29.81,14,7,18,0.00
2013-1-24,-2.7,-6.5,-9.6,-9.6,-13.1,-15.8,87,72,62,29.97,29.79,16,9,18,0.00
2013-1-25,6.7,0.8,-5.4,-1.6,-5.7,-11.0,79,74,66,30.10,29.96,17,10,22,0.00
2013-1-26,9.0,3.2,-3.3,0.2,-3.5,-7.9,81,73,65,30.05,29.97,15,7,18,0.00
2013-1-27,13.0,6.8,1.7,3.3,-0.8,-5.0,86,71,58,30.34,30.04,18,11,22,0.00
2013-1-28,19.6,6.3,-6.4,1.8,-3.3,-10.2,85,66,43,30.36,30.10,7,1,10,0.00
2013-1-29,27.3,16.2,4.0,16.7,9.6,-2.2,83,75,63,30.21,30.09,8,1,12,0.00
2013-1-30,42.7,33.5,21.5,41.9,31.3,15.1,97,92,72,30.10,29.31,3,1,11,0.27
2013-1-31,49.9,37.9,16.8,49.4,33.9,4.9,98,86,57,29.30,28.55,25,8,30,0.81
2013-2-1,12.1,6.8,-0.6,2.0,-1.6,-7.2,80,68,60,29.97,29.20,14,8,17,0.00
2013-2-2,6.8,-1.3,-7.4,-2.9,-8.2,-12.6,92,72,55,30.15,29.98,11,3,13,0.00
2013-2-3,19.3,7.5,-3.5,10.5,2.2,-7.4,86,79,65,30.17,29.79,6,1,9,0.00
2013-2-4,17.9,12.8,5.1,11.2,5.7,-3.8,88,74,55,29.78,29.43,17,10,24,0.00
2013-2-5,5.4,-0.4,-6.1,-4.3,-10.6,-16.5,77,61,54,30.02,29.61,12,6,16,0.00
2013-2-6,19.5,6.2,-3.7,16.2,1.4,-9.6,89,80,72,30.20,29.87,14,3,22,0.01
2013-2-7,-2.5,-9.2,-16.1,-10.0,-17.7,-22.8,79,66,53,30.65,30.20,17,7,20,0.00
2013-2-8,7.3,-5.4,-21.7,-3.3,-13.1,-26.6,82,70,54,30.69,30.40,5,0,7,0.00
2013-2-9,12.1,8.8,4.9,8.5,2.2,-5.2,85,74,61,30.40,30.14,18,12,26,0.00
2013-2-10,24.4,14.3,4.8,5.3,1.8,-2.1,75,59,34,30.33,30.17,18,9,21,0.00
2013-2-11,28.2,15.7,-1.9,27.0,10.2,-5.6,95,80,50,30.30,29.60,6,0,6,0.00
2013-2-12,34.4,30.6,28.3,31.7,28.3,25.0,96,91,86,29.62,29.42,11,3,15,0.11
2013-2-13,28.5,26.3,23.4,25.2,22.6,20.9,92,86,78,29.77,29.63,7,2,9,0.00
2013-2-14,30.9,22.2,14.3,22.4,17.6,12.2,94,83,67,29.97,29.75,6,1,7,0.02
2013-2-15,31.8,24.0,15.6,28.7,21.5,13.7,95,90,74,30.00,29.90,1,0,1,0.06
2013-2-16,30.9,25.3,19.9,25.9,20.9,13.7,95,84,64,29.96,29.86,12,1,12,0.01
2013-2-17,20.3,15.6,12.5,16.3,12.2,9.5,89,86,75,29.85,29.11,23,17,31,0.00
2013-2-18,21.6,15.9,9.8,12.3,9.3,5.4,92,75,65,29.83,29.14,24,18,30,0.00
2013-2-19,32.5,21.6,12.8,19.7,13.7,7.8,80,72,55,30.05,29.82,18,6,27,0.00
2013-2-20,31.2,28.7,25.9,30.2,26.9,20.0,96,93,75,29.80,29.37,9,2,12,0.00
2013-2-21,32.7,29.1,26.2,30.5,26.9,22.2,96,91,82,30.22,29.48,15,8,19,0.06
2013-2-22,31.0,24.2,13.6,22.8,19.3,11.5,92,81,69,30.42,30.22,11,5,11,0.01
2013-2-23,28.5,19.5,7.1,23.1,16.5,4.5,94,88,79,30.39,30.11,1,0,1,0.03
2013-2-24,29.4,24.3,18.4,25.6,21.7,16.5,94,90,81,30.11,29.91,2,0,3,0.14
2013-2-25,35.5,22.6,11.5,21.6,16.6,9.4,98,79,51,30.24,29.97,3,0,4,0.17
2013-2-26,38.2,20.9,3.9,25.6,15.4,0.9,93,80,57,30.39,30.24,4,0,4,0.09
2013-2-27,41.2,25.0,10.9,24.6,17.3,8.8,93,75,45,30.33,30.00,1,0,2,0.04
2013-2-28,28.4,26.8,24.7,26.4,23.4,19.0,95,87,70,29.99,29.73,7,3,14,0.00
2013-3-1,34.0,28.9,25.4,31.6,26.6,23.9,95,91,85,29.76,29.64,10,6,12,0.07
2013-3-2,34.4,31.1,27.5,32.9,29.5,26.0,96,94,91,29.68,29.62,13,8,16,0.18
2013-3-3,36.6,33.2,29.8,35.0,31.7,28.3,97,94,91,29.64,29.46,8,6,12,0.27
2013-3-4,38.6,35.4,33.0,33.8,32.3,30.5,97,89,76,29.81,29.46,11,6,18,0.15
2013-3-5,38.6,35.1,31.4,31.8,30.2,26.5,88,82,74,30.30,29.82,10,5,16,0.00
2013-3-6,35.4,31.3,27.4,26.7,24.3,20.8,84,75,65,30.43,30.30,6,3,10,0.00
2013-3-7,30.8,27.8,26.3,23.6,21.8,20.0,82,78,72,30.44,30.34,7,3,10,0.00
2013-3-8,41.5,29.9,21.0,24.0,21.2,17.7,88,71,44,30.37,30.33,6,2,12,0.00
2013-3-9,41.3,28.8,18.8,27.2,22.2,16.4,93,77,55,30.42,30.34,3,0,4,0.00
2013-3-10,36.5,28.1,18.4,27.4,23.0,16.5,93,82,67,30.44,30.18,1,0,3,0.00
2013-3-11,46.2,37.3,31.6,34.1,30.7,26.2,87,77,61,30.19,30.01,1,0,3,0.00
2013-3-12,42.0,38.8,34.7,40.2,36.7,32.6,97,92,84,30.06,29.83,1,0,5,0.26
2013-3-13,41.9,39.3,34.4,40.6,36.3,25.8,97,89,66,29.83,29.57,8,2,12,0.17
2013-3-14,36.2,31.0,20.4,27.3,23.4,15.2,89,74,54,29.66,29.50,13,5,16,0.00
2013-3-15,24.0,18.1,13.6,14.0,9.3,6.9,77,68,57,29.71,29.58,9,3,11,0.00
2013-3-16,23.3,17.1,11.0,10.1,6.0,1.2,81,63,38,29.87,29.64,13,5,17,0.00
2013-3-17,13.5,9.4,4.2,8.8,0.0,-8.7,85,66,48,30.24,29.86,15,6,23,0.00
2013-3-18,22.7,11.8,2.7,2.0,-2.6,-7.8,69,53,35,30.37,30.24,15,7,19,0.00
2013-3-19,28.1,17.0,3.3,15.1,5.8,-1.0,83,62,44,30.38,29.90,2,0,4,0.00
2013-3-20,26.2,20.9,15.3,24.7,18.6,12.0,94,91,68,29.90,29.41,10,6,13,0.00
2013-3-21,32.5,23.5,14.1,26.0,20.1,12.0,100,87,75,29.71,29.47,11,2,13,0.10
2013-3-22,31.9,21.4,7.8,26.0,18.1,5.2,92,87,73,29.68,29.36,11,5,15,0.00
2013-3-23,34.4,29.7,25.5,31.8,26.9,23.3,93,89,83,29.54,29.25,13,9,20,0.14
2013-3-24,39.4,31.7,23.0,32.2,27.0,20.4,92,83,68,29.81,29.54,14,6,15,0.02
2013-3-25,38.7,31.7,25.5,28.5,26.1,23.4,95,80,57,29.81,29.71,8,3,12,0.00
2013-3-26,37.8,32.2,25.7,31.6,28.0,21.7,95,85,74,29.71,29.62,14,8,20,0.00
2013-3-27,43.4,36.4,32.6,36.9,34.0,31.4,97,91,74,29.90,29.66,7,3,10,0.17
2013-3-28,47.1,39.9,33.1,34.2,31.0,26.9,100,73,46,29.93,29.86,7,2,13,0.00
2013-3-29,44.5,37.2,27.9,33.6,26.2,18.1,96,68,36,29.96,29.89,9,3,17,0.00
2013-3-30,43.7,32.6,20.1,23.3,17.6,10.8,92,58,29,30.06,29.96,7,2,10,0.00
2013-3-31,49.6,34.3,19.4,25.7,19.8,14.0,83,58,29,30.09,29.86,1,0,6,0.00
2013-4-1,38.3,34.6,30.1,35.6,30.5,23.4,95,85,63,29.85,29.45,11,1,12,0.21
2013-4-2,31.2,21.4,15.1,24.3,12.5,7.4,81,68,51,29.63,29.46,18,9,21,0.00
2013-4-3,28.7,20.4,9.8,19.8,11.0,0.8,81,67,56,29.81,29.60,15,9,21,0.00
2013-4-4,40.0,31.0,21.6,28.6,15.4,6.8,79,54,34,30.02,29.81,15,9,18,0.00
2013-4-5,38.9,33.9,26.6,32.3,29.6,22.1,95,84,71,29.87,29.66,11,3,14,0.00
2013-4-6,27.5,22.5,16.3,21.8,9.0,3.8,84,57,37,30.28,29.74,19,12,23,0.00
2013-4-7,36.8,26.6,11.6,30.9,16.2,4.0,85,65,46,30.31,29.84,4,1,15,0.00
2013-4-8,37.6,34.5,29.6,33.0,29.8,25.6,94,83,73,30.16,29.81,15,4,17,0.00
2013-4-9,38.0,32.6,26.7,34.8,30.1,24.3,96,91,85,30.17,29.94,2,0,3,0.07
2013-4-10,41.8,36.4,33.3,34.1,29.9,19.5,97,79,55,29.95,29.88,11,4,12,0.02
2013-4-11,33.9,29.2,23.6,20.7,14.7,9.6,63,54,45,30.22,29.91,16,10,19,0.00
2013-4-12,42.3,31.4,22.3,30.9,22.5,15.8,95,71,44,30.29,30.05,8,2,9,0.00
2013-4-13,37.3,33.3,30.2,34.2,31.4,28.9,96,93,86,30.05,29.85,3,0,5,0.35
2013-4-14,39.6,35.0,31.4,35.3,32.8,30.4,97,92,81,30.18,29.91,1,0,3,0.17
2013-4-15,50.0,38.9,30.0,35.9,30.7,28.7,96,75,47,30.38,30.18,5,0,7,0.01
2013-4-16,45.0,39.8,35.0,40.1,36.3,29.2,96,87,74,30.33,29.74,5,1,7,0.16
2013-4-17,44.4,39.9,33.6,40.2,27.5,19.8,96,63,40,30.36,29.78,18,10,32,0.04
2013-4-18,45.0,35.7,25.1,32.3,23.9,18.5,92,64,39,30.48,29.94,10,1,12,0.07
2013-4-19,67.1,51.4,38.8,53.9,43.2,28.8,92,74,59,29.94,29.46,3,1,7,0.00
2013-4-20,57.2,44.1,34.4,55.4,38.7,29.1,95,82,59,30.02,29.44,17,6,22,0.34
2013-4-21,39.1,31.1,25.0,28.4,15.9,9.7,80,54,32,30.74,30.02,14,7,19,0.00
2013-4-22,51.8,36.3,19.7,23.4,18.7,11.9,86,52,26,30.85,30.64,4,1,8,0.00
2013-4-23,54.2,41.2,26.2,34.2,23.9,16.7,87,55,23,30.64,30.31,3,0,11,0.00
2013-4-24,55.7,45.6,37.0,49.6,42.0,32.5,97,87,73,30.31,29.70,1,0,4,0.04
2013-4-25,51.7,46.5,36.0,48.2,37.1,27.2,97,72,42,30.32,29.64,18,5,20,0.06
2013-4-26,56.1,42.3,27.2,29.0,26.2,22.1,90,57,27,30.50,30.33,5,1,7,0.00
2013-4-27,60.8,45.4,29.2,33.9,26.8,22.6,83,53,24,30.45,30.27,6,1,6,0.00
2013-4-28,66.0,49.0,29.1,34.3,30.4,26.4,91,54,26,30.35,30.20,2,0,9,0.00
2013-4-29,70.6,54.0,35.6,41.8,33.3,28.6,76,49,26,30.28,30.16,3,0,7,0.00
2013-4-30,73.3,55.8,37.3,42.0,35.4,29.1,76,50,26,30.35,30.24,4,0,5,0.00
2013-5-1,77.6,57.7,40.1,45.5,40.6,34.9,90,58,24,30.45,30.35,4,0,6,0.00
2013-5-2,67.5,54.0,42.7,42.0,36.0,24.2,82,54,23,30.58,30.44,7,2,10,0.00
2013-5-3,69.4,52.6,34.4,41.1,35.1,30.2,86,55,30,30.63,30.40,3,0,7,0.00
2013-5-4,72.7,56.3,37.7,40.7,35.5,29.9,78,49,27,30.43,30.21,5,0,5,0.00
2013-5-5,81.6,61.6,39.2,45.6,38.8,32.1,79,47,21,30.22,30.04,6,1,7,0.00
2013-5-6,81.9,64.9,45.9,47.0,41.4,38.9,80,47,22,30.13,29.93,12,2,14,0.00
2013-5-7,82.4,66.2,46.5,44.6,40.5,36.1,81,44,20,30.10,29.91,13,4,18,0.00
2013-5-8,83.2,65.9,45.0,49.8,43.5,37.3,80,47,26,30.21,30.04,3,1,7,0.00
2013-5-9,65.8,59.6,52.2,60.5,55.2,48.8,95,86,69,30.07,29.85,2,0,5,0.04
2013-5-10,57.6,54.1,46.6,56.3,49.6,42.6,97,85,67,30.03,29.84,15,5,19,0.01
2013-5-11,53.9,50.4,46.7,53.3,49.0,42.7,98,95,83,30.01,29.61,3,0,4,0.70
2013-5-12,58.6,52.7,45.8,53.6,49.4,40.8,98,89,71,29.66,29.50,9,1,13,0.34
2013-5-13,49.6,43.3,33.9,41.2,32.7,29.4,86,67,49,29.97,29.59,16,7,22,0.00
2013-5-14,49.8,41.5,30.1,35.6,31.8,28.3,95,70,50,30.02,29.95,8,2,12,0.00
2013-5-15,63.3,48.6,32.9,38.4,32.5,28.7,86,58,27,29.96,29.64,9,3,15,0.00
2013-5-16,53.5,47.7,43.1,49.9,45.4,38.0,97,92,70,29.65,29.52,6,1,10,0.38
2013-5-18,56.3,49.7,36.9,35.5,33.3,31.0,81,55,39,30.38,30.29,7,2,9,0.00
2013-5-19,62.9,46.3,29.8,40.4,33.8,26.8,95,67,27,30.43,30.17,2,0,5,0.00
2013-5-20,54.6,49.9,45.7,53.4,47.6,40.8,97,92,74,30.17,29.94,1,0,6,0.41
2013-5-21,62.3,51.0,45.3,52.9,47.7,44.5,98,89,57,30.05,29.98,3,0,5,0.01
2013-5-22,53.4,49.8,45.4,50.6,48.1,43.0,97,94,86,30.02,29.90,1,0,6,0.15
2013-5-23,60.3,53.9,47.8,59.7,52.9,47.0,98,96,91,29.89,29.72,2,0,7,0.73
2013-5-24,59.3,49.4,45.0,58.7,48.1,42.8,98,95,91,29.99,29.71,15,7,18,0.61
2013-5-25,45.0,42.7,39.9,43.4,40.9,38.6,96,93,87,30.08,29.90,11,6,15,1.04
2013-5-26,52.4,44.2,40.9,49.8,42.8,39.3,99,95,88,29.92,29.75,12,5,17,0.63
2013-5-27,50.6,43.8,38.4,39.9,37.6,35.5,95,80,60,30.13,29.83,14,7,18,0.00
2013-5-28,67.6,50.0,31.6,46.1,37.3,30.6,98,67,32,30.26,30.13,6,1,8,0.00
2013-5-29,72.7,56.8,39.5,54.4,44.7,36.0,96,68,33,30.22,29.95,3,1,6,0.22
2013-5-30,72.1,61.8,53.0,62.7,57.1,52.1,100,85,64,29.94,29.89,7,1,9,0.07
2013-5-31,84.2,68.8,57.5,70.3,63.3,55.2,95,84,53,29.94,29.74,16,2,16,0.66
2013-6-1,74.7,63.9,50.5,68.7,60.8,49.4,98,90,75,29.86,29.76,7,2,16,0.16
2013-6-2,72.7,60.2,50.5,68.8,59.0,49.4,100,96,86,29.77,29.60,7,0,9,1.20
2013-6-3,74.8,66.2,54.4,63.8,57.2,45.9,98,75,48,29.70,29.62,11,3,15,0.01
2013-6-4,57.7,52.1,45.9,46.0,41.5,34.5,90,68,49,29.95,29.65,15,7,20,0.04
2013-6-5,62.5,52.7,42.3,38.7,34.5,29.7,78,52,29,30.10,29.95,12,7,17,0.00
2013-6-6,67.5,53.8,36.4,44.3,36.6,32.4,92,56,29,30.21,30.10,8,2,14,0.00
2013-6-7,64.7,56.2,45.7,54.0,49.1,41.6,92,78,59,30.17,30.06,5,0,5,0.00
2013-6-8,55.8,52.3,47.6,53.1,49.7,44.6,96,91,82,30.07,29.86,9,3,15,0.56
2013-6-9,56.8,50.4,46.7,51.4,47.8,44.7,95,91,81,30.15,30.01,5,1,7,0.04
2013-6-10,76.2,59.5,38.7,57.2,49.5,37.7,97,73,39,30.18,29.99,7,1,11,0.00
2013-6-11,66.9,58.6,51.2,59.0,54.7,49.5,96,88,70,30.00,29.75,2,0,4,0.06
2013-6-12,68.3,59.7,54.0,57.5,48.9,35.5,96,71,40,29.80,29.71,8,2,18,0.09
2013-6-13,72.6,59.4,40.9,52.4,43.8,35.2,92,59,33,29.85,29.70,3,0,6,0.00
2013-6-14,76.3,59.5,46.1,57.1,51.2,44.5,95,77,43,29.72,29.61,7,1,9,0.15
2013-6-15,68.8,58.8,47.5,50.7,44.0,37.0,96,60,37,29.76,29.67,14,5,19,0.01
2013-6-16,62.9,52.2,40.9,49.4,40.0,32.9,96,66,34,29.88,29.77,7,1,10,0.42
2013-6-17,62.6,54.8,49.1,58.3,52.9,48.0,100,93,84,29.80,29.74,7,0,10,0.04
2013-6-18,64.6,54.9,47.7,50.8,48.7,45.0,95,81,52,29.95,29.80,10,2,10,0.01
2013-6-19,67.9,55.3,40.0,49.5,44.8,38.9,97,71,40,30.09,29.93,9,2,12,0.01
2013-6-20,73.4,60.1,42.9,53.3,45.2,41.3,95,63,35,30.19,30.10,7,2,12,0.00
2013-6-21,72.7,61.9,50.0,55.2,45.3,31.1,86,58,34,30.18,30.09,11,3,13,0.00
2013-6-22,76.1,59.0,40.9,60.7,50.4,37.6,92,74,53,30.19,30.01,9,2,12,0.00
2013-6-23,79.3,67.4,54.8,66.9,60.6,53.4,97,80,54,30.10,29.87,3,0,13,0.00
2013-6-24,80.5,71.0,59.2,67.0,63.2,58.3,98,78,58,29.88,29.69,6,1,11,0.00
2013-6-25,83.6,70.1,60.5,71.8,64.8,58.1,97,84,53,29.77,29.58,18,2,21,0.57
2013-6-26,61.1,56.4,52.9,58.8,53.4,51.2,96,90,82,29.91,29.72,10,2,13,0.25
2013-6-27,54.6,50.7,47.0,53.3,49.5,45.9,97,96,93,30.00,29.86,2,0,6,0.73
2013-6-28,53.0,50.7,48.0,52.2,49.8,46.9,98,96,94,29.99,29.69,7,2,16,1.03
2013-6-29,63.8,58.0,52.2,63.2,57.4,51.7,99,98,98,29.69,29.57,4,1,5,0.80
2013-6-30,73.9,65.4,59.0,65.3,61.2,56.6,99,87,68,29.91,29.65,8,2,12,0.14
2013-7-1,72.8,63.5,53.5,61.9,53.6,43.2,98,73,35,30.19,29.91,9,2,13,0.00
2013-7-2,72.6,61.2,50.3,54.8,51.1,47.3,93,72,44,30.30,30.17,4,0,7,0.00
2013-7-3,80.9,68.2,54.4,68.5,60.5,52.2,96,78,54,30.17,29.99,5,1,10,0.00
2013-7-4,86.6,76.5,66.1,68.7,65.2,61.9,92,70,46,30.07,29.92,7,3,13,0.00
2013-7-5,87.0,77.7,71.1,70.5,66.5,60.0,89,70,41,29.96,29.87,8,3,13,0.00
2013-7-6,85.5,75.3,64.1,70.1,65.7,62.2,96,73,47,29.91,29.77,6,2,10,0.00
2013-7-7,79.4,72.6,61.3,66.9,56.9,36.4,84,61,24,29.94,29.78,10,5,13,0.00
2013-7-8,75.0,64.1,55.2,52.0,48.6,43.0,79,59,35,30.09,29.94,7,2,11,0.00
2013-7-9,76.3,62.2,46.3,63.6,53.5,44.2,94,75,53,30.16,30.02,2,0,4,0.00
2013-7-10,73.1,67.5,60.8,66.1,63.4,57.4,94,87,77,30.03,29.68,3,1,11,0.00
2013-7-11,75.9,68.6,56.2,67.5,60.6,50.1,96,77,52,30.00,29.60,12,4,20,0.00
2013-7-12,79.8,63.6,47.9,57.3,49.6,46.0,95,64,33,30.22,30.00,5,1,8,0.00
2013-7-13,86.3,68.6,47.0,61.1,52.3,45.6,96,62,28,30.29,30.17,4,1,12,0.00
2013-7-14,90.0,74.2,54.6,63.4,57.8,51.5,92,61,32,30.23,30.10,6,1,10,0.00
2013-7-15,91.3,76.7,60.9,69.2,62.3,57.6,90,65,34,30.11,29.99,10,2,12,0.00
2013-7-16,85.5,75.9,63.1,64.8,59.1,52.8,87,59,34,30.15,30.06,6,2,8,0.00
2013-7-17,84.5,67.9,56.1,73.8,63.6,52.4,96,86,69,30.13,29.84,8,1,9,0.27
2013-7-18,77.7,69.9,61.2,65.0,56.6,49.7,95,65,41,29.98,29.88,10,2,16,0.00
2013-7-19,78.4,67.7,58.7,73.5,64.8,53.8,97,91,83,29.92,29.44,8,1,12,0.36
2013-7-20,79.2,71.6,57.7,68.5,64.3,50.7,89,78,57,29.72,29.44,15,5,15,0.00
2013-7-21,66.8,58.5,48.5,50.8,44.7,40.4,88,62,42,30.01,29.73,10,4,17,0.00
2013-7-22,76.9,60.5,41.6,56.6,48.1,40.3,97,68,37,30.06,29.89,6,1,7,0.00
2013-7-23,67.9,61.6,55.1,64.1,58.8,53.7,97,91,71,29.89,29.54,2,0,4,0.66
2013-7-24,76.1,63.1,52.7,70.2,58.5,47.2,98,86,53,29.96,29.50,10,3,19,0.17
2013-7-25,72.5,59.0,45.2,58.5,49.8,43.2,94,73,50,30.17,29.96,6,1,11,0.00
2013-7-26,63.8,58.3,52.3,59.9,55.8,50.6,96,92,80,30.18,29.99,6,2,10,0.20
2013-7-27,71.3,63.1,58.1,62.2,59.2,56.7,97,88,72,30.05,29.91,15,6,20,0.07
2013-7-28,76.2,65.3,54.1,64.1,59.4,53.3,100,83,63,30.12,30.03,3,0,5,0.00
2013-7-29,66.4,61.9,58.8,63.7,60.2,57.0,97,94,90,30.05,30.00,1,0,2,0.15
2013-7-30,71.6,63.6,56.2,63.5,59.9,54.5,98,88,64,30.04,29.94,8,1,8,0.34
2013-7-31,76.7,64.7,51.7,60.6,56.0,50.4,97,76,50,30.00,29.93,8,2,13,0.00
2013-8-1,82.0,65.7,51.7,64.9,58.2,50.6,98,79,48,30.01,29.84,4,0,5,0.00
2013-8-2,69.2,60.7,57.2,65.8,59.3,55.4,98,95,88,29.84,29.68,5,0,6,1.82
2013-8-3,66.0,59.6,53.1,62.8,57.2,52.3,98,92,79,29.74,29.65,5,1,10,0.24
2013-8-4,72.8,60.7,51.3,61.8,56.3,50.5,98,86,57,29.74,29.66,9,1,14,0.01
2013-8-5,62.7,57.1,54.2,57.1,53.7,47.5,97,89,73,29.89,29.73,9,3,12,0.53
2013-8-6,74.1,62.3,47.0,56.7,51.4,43.9,92,69,48,30.10,29.89,7,2,10,0.00
2013-8-7,78.4,64.4,49.8,62.3,55.9,48.7,98,77,46,30.18,30.05,3,0,9,0.00
2013-8-8,63.2,58.6,51.7,61.4,56.9,50.0,97,94,89,30.07,29.99,2,0,6,0.24
2013-8-9,67.2,64.5,61.6,66.6,63.6,60.9,98,97,93,30.01,29.69,1,0,2,0.05
2013-8-10,67.9,63.5,55.5,64.3,55.7,48.0,98,77,59,29.84,29.61,14,5,20,0.01
2013-8-11,74.3,62.0,50.6,57.8,51.8,46.6,93,71,43,29.90,29.82,13,4,22,0.01
2013-8-12,73.3,62.0,52.6,62.2,56.7,50.9,97,84,55,29.90,29.82,9,1,13,0.38
2013-8-13,63.8,57.9,51.2,60.9,56.6,50.4,98,96,87,29.89,29.70,2,0,3,0.16
2013-8-14,67.0,59.9,53.0,63.9,56.5,48.9,99,89,72,29.70,29.54,12,4,14,0.01
2013-8-15,71.1,59.8,51.9,56.6,51.8,47.2,95,76,54,29.97,29.68,8,4,14,0.01
2013-8-16,71.0,59.3,49.0,59.7,54.3,47.9,98,85,57,30.16,29.98,9,1,12,0.00
2013-8-17,71.0,59.6,47.8,53.2,50.7,46.5,97,75,48,30.25,30.16,8,2,11,0.01
2013-8-18,78.5,64.2,47.8,60.5,53.9,46.4,97,72,44,30.22,29.91,12,3,16,0.00
2013-8-19,77.3,68.5,58.5,62.9,58.8,54.3,92,72,55,29.90,29.77,10,4,16,0.00
2013-8-20,74.9,66.3,59.0,68.4,63.2,56.7,97,90,76,30.01,29.87,3,0,5,0.02
2013-8-21,85.1,71.9,59.0,70.3,64.6,58.2,98,80,51,30.02,29.84,12,3,16,0.01
2013-8-22,79.3,68.8,60.5,68.6,63.9,58.8,97,85,68,29.84,29.72,10,2,14,0.41
2013-8-23,65.1,59.2,48.5,60.4,51.4,45.0,96,77,49,30.14,29.73,11,4,17,0.19
2013-8-24,73.0,58.1,43.5,52.6,46.7,42.1,96,70,38,30.30,30.14,6,1,10,0.01
2013-8-25,78.1,61.3,43.5,62.1,52.1,42.4,98,75,44,30.33,30.06,3,0,7,0.00
2013-8-26,71.0,62.6,56.6,64.9,59.7,54.7,96,90,80,30.06,29.78,7,1,9,0.05
2013-8-27,74.6,66.0,57.4,62.9,60.1,56.6,98,82,61,29.90,29.80,8,2,9,0.01
2013-8-28,71.3,62.9,55.0,65.2,59.4,54.0,98,89,76,30.12,29.88,6,2,10,0.05
2013-8-29,65.2,56.5,46.5,53.8,49.8,44.9,94,79,59,30.24,30.07,4,2,7,0.00
2013-8-30,69.8,56.6,41.8,62.4,53.0,40.7,98,88,71,30.07,29.76,6,1,9,0.00
2013-8-31,76.4,66.1,57.6,63.9,60.8,56.8,98,84,58,29.83,29.74,3,0,4,0.03
2013-9-1,74.1,66.3,60.4,62.5,59.6,55.0,97,80,55,30.02,29.77,9,3,12,0.00
2013-9-2,61.1,56.8,52.6,58.4,54.2,51.8,97,91,81,30.07,29.87,6,1,13,1.22
2013-9-3,70.4,61.8,52.9,66.3,59.4,52.1,98,92,82,29.86,29.65,4,1,5,0.16
2013-9-4,71.3,59.2,43.6,58.9,52.8,40.6,97,80,56,29.85,29.61,13,4,20,0.00
2013-9-5,56.4,47.9,40.7,43.3,39.1,33.6,96,73,44,30.06,29.85,9,3,14,0.00
2013-9-6,65.3,51.2,35.9,45.0,39.6,34.0,94,68,39,30.09,29.87,8,3,16,0.00
2013-9-7,67.2,58.9,50.2,57.5,52.5,44.3,96,80,69,29.88,29.66,9,3,13,0.12
2013-9-8,58.7,50.6,41.3,57.6,44.9,38.3,96,81,55,29.92,29.64,15,6,20,0.02
2013-9-9,41.2,40.6,40.0,38.4,38.0,37.6,91,90,89,29.96,29.92,3,1,5,0.00
2013-9-11,75.5,68.0,60.9,72.2,66.0,60.2,98,94,81,29.91,29.79,5,1,9,0.50
2013-9-12,64.8,61.1,59.0,64.4,60.4,58.2,99,98,97,29.86,29.80,2,0,2,0.01
2013-9-13,61.7,59.5,56.3,56.9,55.2,53.0,89,86,82,29.75,29.66,8,5,11,0.02
2013-9-14,56.1,49.5,44.0,53.2,48.0,42.9,100,95,89,29.96,29.73,11,4,17,0.41
2013-9-15,63.0,54.7,45.4,53.4,49.4,44.2,97,84,58,30.00,29.87,10,3,13,0.01
2013-9-16,56.1,45.6,36.1,53.0,39.9,33.5,94,81,62,30.21,29.87,12,6,19,0.18
2013-9-17,62.0,47.5,34.4,43.9,39.0,32.6,95,75,43,30.34,30.17,9,3,17,0.00
2013-9-18,69.6,55.0,41.3,48.5,43.3,38.6,91,67,36,30.17,29.98,9,4,15,0.00
2013-9-19,71.9,57.9,42.8,53.6,48.6,41.5,96,74,45,30.04,29.94,6,1,11,0.00
2013-9-20,63.2,57.8,52.5,58.6,54.3,50.4,95,88,80,30.09,30.00,2,0,4,0.00
2013-9-21,72.1,61.2,54.0,57.8,53.2,48.6,95,78,44,30.00,29.68,4,2,10,0.00
2013-9-22,67.4,59.1,47.9,62.1,56.5,44.9,96,91,80,29.68,29.49,12,2,14,0.54
2013-9-23,47.9,45.0,43.2,44.9,42.8,41.6,94,92,88,29.80,29.66,11,6,19,0.62
2013-9-24,53.3,46.6,42.4,47.7,43.8,40.5,95,90,79,29.85,29.73,15,8,21,0.12
2013-9-25,54.9,48.5,44.2,48.6,45.1,42.3,94,88,77,29.99,29.85,13,8,21,0.00
2013-9-26,58.4,51.7,46.4,51.8,48.1,44.2,94,87,77,30.16,29.99,10,4,16,0.00
2013-9-27,67.9,55.6,46.0,54.4,49.0,44.4,97,80,51,30.26,30.16,9,3,15,0.00
2013-9-28,73.4,54.6,39.0,57.6,48.0,38.0,98,81,49,30.34,30.20,4,1,8,0.00
2013-9-29,76.0,56.9,41.8,58.6,49.6,40.7,98,79,42,30.21,30.05,4,0,6,0.01
2013-9-30,71.6,55.1,41.5,55.4,48.5,40.4,100,81,50,30.10,29.98,2,0,7,0.00
2013-10-1,73.1,54.6,39.7,58.6,45.7,38.7,98,76,38,29.99,29.78,5,0,9,0.01
2013-10-2,72.4,59.2,46.7,59.0,48.6,43.2,97,71,41,29.78,29.59,11,4,17,0.00
2013-10-3,63.9,55.4,46.5,45.1,42.5,39.9,80,63,45,29.96,29.78,14,5,20,0.00
2013-10-4,56.7,48.7,39.6,43.1,38.2,32.7,89,68,48,30.11,29.95,11,4,15,0.00
2013-10-5,55.3,43.7,33.7,39.9,34.7,30.3,95,73,42,30.22,30.08,10,2,17,0.00
2013-10-6,56.3,42.7,30.2,40.4,34.4,28.3,95,75,42,30.31,30.17,6,0,7,0.01
2013-10-7,64.1,51.6,42.7,62.5,49.5,39.7,97,92,81,30.17,29.64,11,2,13,0.50
2013-10-8,56.5,49.8,40.4,53.9,40.2,34.3,93,71,48,30.32,29.69,14,5,21,0.13
2013-10-9,63.1,47.0,32.3,43.9,38.5,30.2,96,75,44,30.45,30.26,8,2,12,0.00
2013-10-10,70.9,55.8,41.1,51.0,44.5,36.0,88,67,45,30.26,30.14,7,2,13,0.00
2013-10-11,68.9,54.7,42.1,55.1,48.2,41.0,97,80,59,30.28,30.16,6,1,9,0.00
2013-10-12,59.0,47.8,39.3,47.6,43.3,37.7,95,85,61,30.42,30.28,3,0,5,0.00
2013-10-13,59.4,43.8,32.4,48.2,39.8,31.4,97,87,61,30.48,30.32,2,0,4,0.00
2013-10-14,52.8,46.2,39.0,52.3,45.3,37.7,98,97,92,30.32,30.19,4,0,6,0.15
2013-10-15,57.2,48.6,40.2,51.3,42.0,36.6,97,80,48,30.31,30.21,6,1,7,0.00
2013-10-16,54.7,48.5,37.6,51.5,46.0,35.2,96,91,84,30.21,29.89,2,0,5,0.00
2013-10-17,60.6,54.5,50.9,56.4,51.2,47.8,98,89,70,29.89,29.67,9,2,13,0.10
2013-10-18,53.3,48.7,43.7,51.0,47.0,42.3,98,94,86,29.70,29.58,6,1,12,0.28
2013-10-19,55.9,47.9,42.7,44.7,40.8,38.5,92,77,55,29.82,29.64,8,4,17,0.01
2013-10-20,50.0,45.6,40.0,47.1,41.3,35.2,97,86,63,29.76,29.59,10,2,13,0.40
2013-10-21,53.7,43.8,37.6,40.8,36.9,33.4,93,77,57,29.97,29.75,6,2,10,0.02
2013-10-22,50.7,44.6,37.7,49.0,42.9,35.3,100,94,86,29.95,29.60,10,1,13,0.36
2013-10-23,45.4,36.4,29.8,38.1,32.2,28.1,96,85,65,29.68,29.56,11,2,13,0.01
2013-10-24,40.0,35.1,29.8,32.7,29.0,25.0,90,79,60,29.59,29.49,12,5,18,0.00
2013-10-25,43.1,37.8,31.7,36.6,33.0,29.6,93,83,65,29.94,29.59,10,3,17,0.08
2013-10-26,42.6,34.7,27.1,35.1,29.9,25.3,100,84,55,29.99,29.80,6,1,9,0.06
2013-10-27,43.7,38.7,36.1,39.7,36.5,33.2,96,92,81,29.84,29.71,5,1,10,0.01
2013-10-28,36.5,32.7,28.2,33.7,29.8,23.6,99,89,81,30.27,29.83,10,2,13,0.10
2013-10-29,33.0,26.5,20.6,25.1,21.7,18.4,95,82,67,30.40,30.27,5,1,10,0.00
2013-10-30,37.8,28.6,19.7,27.4,23.0,17.2,93,80,60,30.32,30.09,8,1,11,0.00
2013-10-31,44.9,34.1,23.4,44.1,30.5,21.2,97,87,75,30.18,29.64,3,0,4,0.44
2013-11-1,61.9,54.6,45.0,59.2,51.6,41.1,98,90,65,29.64,29.03,18,4,24,0.19
2013-11-2,49.1,39.2,30.6,40.8,32.7,19.5,91,78,62,29.86,29.31,10,4,14,0.00
2013-11-3,34.6,29.0,25.1,21.1,17.6,13.7,76,62,46,30.41,29.86,14,4,22,0.00
2013-11-4,35.9,27.7,20.1,20.7,18.1,14.5,84,68,51,30.73,30.41,11,2,17,0.00
2013-11-5,39.3,28.5,18.5,27.6,21.6,15.8,93,77,49,30.74,30.42,2,0,4,0.00
2013-11-6,51.0,40.9,32.1,42.0,34.3,27.2,89,78,59,30.42,29.77,2,0,5,0.00
2013-11-7,51.6,43.0,32.4,49.7,39.8,24.4,97,89,68,29.78,29.51,11,2,18,0.15
2013-11-8,37.3,33.5,28.3,28.7,25.9,22.7,86,74,58,29.73,29.62,13,3,17,0.00
2013-11-9,33.0,30.8,28.8,26.8,23.2,21.2,87,73,65,30.07,29.73,12,5,19,0.00
2013-11-10,30.9,29.4,24.2,29.3,26.4,20.4,95,89,77,30.05,29.70,2,0,5,0.00
2013-11-11,32.9,31.1,30.0,28.9,28.1,26.8,94,89,79,29.90,29.71,11,3,16,0.05
2013-11-12,31.5,25.1,19.7,30.2,20.1,14.2,95,81,66,29.91,29.70,14,4,16,0.00
2013-11-13,27.9,22.6,16.6,17.8,14.4,11.5,83,71,55,30.07,29.91,17,5,23,0.00
2013-11-14,35.3,31.0,20.2,30.6,26.4,16.1,87,83,79,29.97,29.81,7,2,10,0.00
2013-11-15,44.0,38.1,32.5,33.6,32.0,29.7,91,79,64,30.15,29.96,7,1,10,0.00
2013-11-16,48.4,38.4,30.2,36.8,32.2,27.7,92,79,58,30.33,30.15,3,0,4,0.00
2013-11-17,48.1,36.6,26.4,39.4,32.8,24.9,96,87,64,30.34,29.99,2,0,5,0.22
2013-11-18,52.8,44.8,38.2,50.2,41.5,31.6,97,88,70,29.99,29.31,11,3,16,0.83
2013-11-19,39.8,31.9,26.1,33.0,22.9,13.7,84,69,57,30.04,29.41,21,7,31,0.00
2013-11-20,27.9,24.0,20.5,15.7,9.4,5.8,76,54,40,30.61,30.04,20,9,27,0.00
2013-11-21,43.0,27.2,14.8,20.2,15.6,11.3,87,64,33,30.61,30.32,5,0,11,0.00
2013-11-22,37.1,30.6,25.0,28.0,22.0,18.1,92,71,48,30.32,29.69,2,0,3,0.00
2013-11-23,32.6,26.7,17.0,31.6,21.6,10.7,96,82,63,29.69,29.45,18,7,28,0.00
2013-11-24,17.5,16.4,14.9,12.4,10.4,8.2,83,77,71,29.68,29.41,18,12,30,0.00
2013-11-25,19.4,16.5,13.8,12.6,7.4,4.1,86,67,53,30.19,29.69,17,7,29,0.00
2013-11-26,32.6,24.0,16.0,25.3,20.1,12.6,90,85,72,30.29,30.15,5,0,5,0.02
2013-11-27,45.5,34.9,25.0,45.0,33.6,21.6,100,95,85,30.22,29.12,11,1,12,1.62
2013-11-28,34.3,23.3,12.4,32.9,19.5,8.5,95,85,76,30.21,29.16,13,5,30,0.03
2013-11-29,19.0,12.9,7.6,11.3,7.4,3.8,90,79,64,30.67,30.21,11,2,15,0.00
2013-11-30,18.1,13.7,6.3,14.1,8.4,3.3,90,79,63,30.78,30.42,4,1,5,0.00
2013-12-1,29.8,21.0,16.8,22.8,18.2,13.9,92,89,75,30.42,30.23,0,0,1,0.02
2013-12-2,29.7,25.5,19.5,28.4,23.8,17.6,95,93,91,30.24,30.00,2,1,6,0.00
2013-12-3,33.9,32.2,29.7,33.1,31.3,28.4,97,96,95,30.00,29.85,8,1,12,0.13
2013-12-4,32.3,30.7,27.3,31.0,28.0,23.9,95,90,86,30.20,29.82,17,10,23,0.01
2013-12-5,37.6,29.4,25.2,36.8,27.4,22.9,97,92,87,30.26,29.81,3,1,4,0.00
2013-12-6,39.6,35.2,27.7,38.2,28.9,15.7,97,78,60,29.98,29.77,9,3,14,0.05
2013-12-7,27.5,20.9,13.4,14.5,10.8,7.8,78,65,54,30.25,29.98,8,3,14,0.00
2013-12-8,17.9,13.1,4.4,10.1,5.6,0.4,85,72,58,30.58,30.25,6,2,12,0.00
2013-12-9,16.8,8.8,-0.9,14.4,5.8,-4.3,91,87,81,30.58,29.81,0,0,1,0.00
2013-12-10,26.9,18.1,9.7,22.4,13.6,5.0,94,83,69,29.80,29.67,15,2,18,0.00
2013-12-11,17.5,8.6,-1.9,8.9,2.6,-6.1,86,76,61,30.06,29.75,11,3,15,0.00
2013-12-12,0.7,-4.8,-12.8,-6.6,-11.1,-18.5,83,74,67,30.19,29.94,12,2,16,0.00
2013-12-13,5.1,-1.8,-9.1,-0.5,-7.6,-15.8,85,76,62,30.33,29.83,12,5,15,0.00
2013-12-14,0.9,-6.1,-13.4,-8.7,-12.8,-19.3,82,72,62,30.65,30.33,9,2,11,0.00
2013-12-15,12.5,4.5,-4.1,9.9,0.8,-8.7,92,85,77,30.58,29.60,12,4,13,0.00
2013-12-16,11.3,6.7,-3.8,8.5,3.4,-7.9,89,86,82,30.08,29.59,6,2,9,0.00
2013-12-17,5.4,-3.8,-13.1,2.9,-7.7,-17.3,91,83,79,30.31,30.09,5,0,6,0.00
2013-12-18,15.1,6.2,-1.3,11.7,3.1,-4.7,90,87,85,30.22,29.84,2,0,2,0.00
2013-12-19,16.1,11.6,3.7,13.4,8.8,0.6,91,88,84,30.09,29.83,5,1,6,0.00
2013-12-20,10.1,7.2,2.7,7.5,4.2,-0.3,89,87,85,30.23,30.09,4,0,6,0.00
2013-12-21,16.1,13.6,9.8,13.7,11.0,7.2,90,89,88,30.16,29.91,11,2,12,0.00
2013-12-22,14.9,13.1,11.9,12.5,10.6,9.3,100,89,86,30.23,30.12,10,3,17,0.00
2013-12-23,19.3,15.8,11.6,17.6,13.7,9.2,93,91,89,30.21,30.05,1,0,2,0.00
2013-12-24,19.6,14.5,10.7,18.5,12.2,8.1,100,90,89,30.14,30.06,10,2,12,0.00
2013-12-25,10.9,3.2,-7.1,8.5,-0.1,-10.7,95,86,82,30.54,30.11,12,3,15,0.00
2013-12-26,11.0,3.5,-7.0,8.6,0.5,-10.6,90,87,83,30.53,30.14,0,0,0,0.00
2013-12-27,16.7,6.5,-7.1,14.3,3.6,-10.7,90,88,84,30.15,30.04,3,0,3,0.00
2013-12-28,28.0,17.4,1.1,25.5,14.9,-1.9,93,90,82,30.08,29.80,14,2,14,0.00
2013-12-29,16.4,6.1,2.9,11.7,2.4,-1.0,89,84,77,30.20,29.74,15,4,17,0.00
2013-12-30,16.6,8.5,-6.7,13.9,5.3,-11.3,91,87,78,30.09,29.60,13,3,15,0.00
2013-12-31,-1.8,-5.8,-9.8,-7.4,-10.3,-14.0,84,80,75,30.17,30.07,7,1,10,0.00
2014-1-1,1.4,-9.8,-18.7,-4.1,-14.7,-25.4,95,78,69,30.49,30.07,13,3,15,0.00
2014-1-2,-15.3,-19.4,-26.9,-19.8,-25.6,-32.2,85,72,64,30.59,30.33,7,3,10,0.00